Zurück zum Katalog

NOAA 16 DEB

AktivSSO
NORAD 41296·DEBRIS·🇺🇸 United States

Gestartet Sep 21, 2000 von Vandenberg Space Force Base

Loading…

Nächste Überflüge (nächste 24 Stunden)

TLE

AktuellSource: Space-Track

Epoche: Sep 13, 2026, 20:52 UTC

1 41296U 00055GY  26256.87009413  .00001724  00000-0  81282-3 0  9993
2 41296  98.7094 312.9648 0024109 266.8819  92.9600 14.21010366551540

Verfolge NOAA 16 DEB in Echtzeit mit AllMySat

Download on the App Store